Regional Weather Roundup
Issued by NWS Charleston, SC

Current Version | Previous Version | Graphics & Text | Print | Product List | Glossary On
Versions: 1 2 3 4 5 6 7 8 9 10 11 12 13 14 15 16 17 18 19 20 21 22 23 24 25 26 27 28 29 30 31 32 33 34 35 36 37 38 39 40 41 42 43 44 45 46 47 48 49 50
000
ASUS42 KCHS 300710
RWRCHS
REGIONAL WEATHER ROUNDUP
NATIONAL WEATHER SERVICE CHARLESTON SC
300 AM EDT SAT AUG 30 2014

NOTE: "FAIR" INDICATES FEW OR NO CLOUDS BELOW 12,000 FEET WITH NO
SIGNIFICANT WEATHER AND/OR OBSTRUCTIONS TO VISIBILITY.

NOT ALL STATIONS ARE QUALITY CONTROLLED BY THE NATIONAL
WEATHER SERVICE. USE DATA WITH CAUTION...ESPECIALLY
DEWPOINT OBSERVATIONS.

SCZ027-030-031-034>040-042>050-300800-
...SOUTH CAROLINA...

CITY           SKY/WX    TMP DP  RH WIND       PRES   REMARKS
N CHARLESTON   PTCLDY    75  72  90 CALM      30.13F
WATERFRONT PRK   N/A     81 N/A N/A CALM        N/A
FORT JOHNSON   NOT AVBL
MOUNT PLEASANT LGT RAIN  73  73 100 CALM      30.13F
JOHNS ISLAND   SUNNY     75  73  94 CALM      30.13F
PINOPOLIS        N/A     81  75  83 CALM      30.07R
MONCKS CORNER    N/A     73  73 100 CALM      30.14S
SUMMERVILLE    FAIR      70  70 100 CALM      30.14F
BEAUFORT MCAS  CLEAR     76  73  91 CALM      30.12F
BEAUFORT ARPT  FAIR      77  77 100 CALM      30.12S
HILTON HEAD IS PTCLDY    79  75  89 CALM      30.13S
GEORGETOWN     NOT AVBL
WALTERBORO     SUNNY     70 N/A N/A CALM      30.14S
ORANGEBURG     MOCLDY    73  69  87 CALM      30.15S
BARNWELL       FAIR      72  70  94 CALM      30.14F
AIKEN          FAIR      72  70  94 CALM      30.18S
MANNING        FAIR      73 N/A N/A CALM      30.15S
KINGSTREE      NOT AVBL
COLUMBIA       CLEAR     73  66  78 CALM      30.14S
SUMTER         CLEAR     73  73 100 NE2       30.13F
FLORENCE       PTCLDY    74  72  93 CALM      30.15F
MYRTLE BEACH   MOCLDY    81  75  83 CALM      30.15S
N MYRTLE BEACH CLEAR     81  76  84 S6        30.14S

$$

GAZ063-065-086>088-099>101-113>116-118-119-134-136>141-150-300800-
...GEORGIA...

CITY           SKY/WX    TMP DP  RH WIND       PRES   REMARKS
SAVANNAH ARPT  PTCLDY    76  72  87 CALM      30.12F
HUNTER AAF     CLEAR     76  74  93 CALM      30.10S
FORT STEWART   CLEAR     73  71  92 CALM      30.10F
STATESBORO     NOT AVBL
SYLVANIA       MOSUNNY   72  71  99 CALM      30.13F
CLAXTON        NOT AVBL
THOMSON        CLEAR     74  73  95 CALM      30.17S
AUGUSTA-BUSH   CLEAR     70  68  93 CALM      30.13S
AUGUSTA-DANIEL CLEAR     76  70  82 SE6       30.14F
SWAINSBORO     FAIR      77  77 100 E3        30.12F
VIDALIA          N/A     73  73 100 CALM      30.11F
ALMA           MOCLDY    75  72  90 CALM      30.10F
WAYCROSS       CLOUDY    80  78  94 E3        30.11S
JESUP            N/A     75  73  94 CALM      30.12S
BRUNSWICK      CLOUDY    77  73  88 CALM      30.12S
SAINT SIMONS   MOCLDY    80  75  84 SW6       30.11R

$$

SCZ027-028-034-036>038-045-046-048>050-GAZ119-141-300800-
...LAKE AND SUPPLEMENTAL COASTAL OBSERVATIONS...

STATION/POSITION TIME  TEMP    WIND        PRES    WAVE   SWELL
                       AIR SEA DIR/SP/G            HT/PER HT/PER/DIR
                 (UTC) (F)     (DEG/KT/KT) (MB)    (FT/S) (FT/S/D)
UPR LAKE MARION  NOT AVBL
WINYAH BAY       0600   80     230/  3     1020.0S
LAKE MURRAY      0600   79     180/  5/  7 1020.3S
ACE BASIN NERRS  0600   76        CALM     1020.0S
FORT PULASKI     0700   81     150/  2/  3 1020.0R
SAPELO ISLAND    0600   80     160/  1     1020.0S

$$

ANZ835-935-AMZ111-154-330-350-352-354-374-450-454-472-300800-
...C-MAN AND BUOY OBSERVATIONS...

STATION/POSITION TIME  TEMP    WIND        PRES    WAVE   SWELL
                       AIR SEA DIR/SP/G            HT/PER HT/PER/DIR
                 (UTC) (F)     (DEG/KT/KT) (MB)    (FT/S) (FT/S/D)
FOLLY BEACH CMAN 0600   82     170/  5/  6 1020.9F
BUOY 41004       0700   83 83  190/  2/  2 1019.8F   3/ 8   3/ 8
BUOY 41008       0700   82 84  170/  8/  8 1019.6R   2/ 9   2/110/ 9
5E ST. MARYS GA  0700      84                N/A     3/ 8
FRYING PAN BUOY  NOT AVBL
BUOY 41025       0700   80     300/  2/  2 1021.4F   4/ 7   3/ 70/ 7
CAPE LOOKOUT NC  0600   80      60/  4/  4 1021.2F
BUOY 41002       0631   80 82  160/  6/  8 1021.7F   3/ 8   3/110/ 8
BUOY 41010       0700   80 84  270/ 10/ 14 1019.6F   3/ 8   3/110/ 8
BUOY 41012       NOT AVBL
ST AUGUSTINE FL  0700   76      CALM  /  1 1019.8F
CAPERS NEARSHORE 0600   81     210/  4/  6   N/A
FRIPP NEARSHORE  NOT AVBL


$$



USA.gov is the U.S. government's official web portal to all federal, state and local government web resources and services.